GOES-S (43226 NORAD) Tracking and Keplerian Element Data

This shows tracking and keplerian element data for the satellite.

Feedback or suggestion? Click here.




ElementValue
Catalog43226
NameGOES-S
Epoch Orbit173
Epoch Day228.34670445
Epoch Year2018
RAAN88.4278
Inclination0.0203
Eccentricity3.1E-05
Argument of Perigee26.6694
Mean Anonmoly244.8911
Mean Motion1.00272787
Decay Rate-2.06E-06
L11 43226U 18022A 18228.34670445 -.00000206 00000-0 00000-0 0 9993
L22 43226 0.0203 88.4278 0000310 26.6694 244.8911 1.00272787 1732

Live tracking and technical data element details for GOES-S (NORAD 43226). GOES-S can be tracked NOW for your location showing map with azimuth and elevation plus other details from your city location.

Track the satellite on the map from your city or location and see movement details for azimuth, elevation, latitude, longitude, range, height, and movement on the map or in text.







IsCatalogInMostPopularTable: catalog: 43226, numindb: 155
Update: records affected: 1



GetName: 43226 GOES-S

Hit Count: updated at: Fri, 17 Aug 2018 13:20:34 GMT